Weather History for Dallas Redbird, TX

Change the Weather History Date:

Sunday, February 24, 2013

  Actual Average Record
Temperature  
Mean Temperature 52 °F -  
Max Temperature 70 °F 57 °F 82 °F (2011)
Min Temperature 33 °F 40 °F 21 °F (2003)
Degree Days  
Heating Degree Days 14    
Growing Degree Days 2 (Base 50)    
Moisture  
Dew Point 35 °F    
Average Humidity 54    
Maximum Humidity 78    
Minimum Humidity 29    
Precipitation  
Precipitation 0.00 in - - ()
Sea Level Pressure  
Sea Level Pressure 29.80 in    
Wind  
Wind Speed 8 mph (SE)    
Max Wind Speed 20 mph    
Max Gust Speed 26 mph    
Visibility 10 miles    
Events      
Averages and records for this station are not official NWS values.
T = Trace of Precipitation, MM = Missing Value Source: NWS Daily Summary

Daily Weather History Graph

Daily Weather History Graph

Search for Another Location

Airport:

Trip Planner

Search our weather history database for the weather conditions in past years. The results will help you decide how hot, cold, wet, or windy it might be!

Date:

Astronomy

Feb. 24, 2013 Rise Set
Actual Time 7:00 AM CST 6:21 PM CST
Civil Twilight 6:35 AM CST 6:45 PM CST
Nautical Twilight 6:07 AM CST 7:14 PM CST
Astronomical Twilight 5:38 AM CST 7:43 PM CST
Moon 5:33 PM CST (2/24) 5:57 AM CST (2/24)
Length of Visible Light 12h 10m
Length of Day
11h 20m
Waxing Gibbous, 99% of the Moon is Illuminated
Feb 24
Waxing Gibbous
Feb 25
Full
Mar 4
Last Quarter
Mar 11
New
Mar 19
First Quarter

Hourly Weather History & Observations

Time (CST) Temp. Windchill Dew Point Humidity Pressure Visibility Wind Dir Wind Speed Gust Speed Precip Events Conditions
12:53 AM 39.0 °F 34.0 °F 28.0 °F 65% 29.92 in 10.0 mi ESE 6.9 mph - N/A   Clear
1:53 AM 36.0 °F 32.1 °F 27.0 °F 70% 29.91 in 10.0 mi SE 4.6 mph - N/A   Clear
2:53 AM 36.0 °F 32.1 °F 28.0 °F 73% 29.91 in 10.0 mi SSE 4.6 mph - N/A   Clear
3:53 AM 34.0 °F 31.0 °F 27.0 °F 75% 29.90 in 10.0 mi SE 3.5 mph - N/A   Clear
4:53 AM 36.0 °F - 27.0 °F 70% 29.89 in 10.0 mi Calm Calm - N/A   Clear
5:53 AM 37.0 °F 34.5 °F 28.0 °F 70% 29.90 in 10.0 mi ESE 3.5 mph - N/A   Clear
6:53 AM 33.1 °F - 27.0 °F 78% 29.91 in 10.0 mi Calm Calm - N/A   Clear
7:53 AM 39.9 °F 35.1 °F 32.0 °F 73% 29.91 in 10.0 mi SE 6.9 mph - N/A   Clear
8:53 AM 46.9 °F - 37.0 °F 68% 29.93 in 10.0 mi SSE 11.5 mph - N/A   Clear
9:53 AM 53.1 °F - 39.9 °F 61% 29.91 in 10.0 mi SSE 12.7 mph 19.6 mph N/A   Clear
10:53 AM 60.1 °F - 43.0 °F 53% 29.88 in 10.0 mi SSE 19.6 mph 26.5 mph N/A   Clear
11:53 AM 64.0 °F - 41.0 °F 43% 29.86 in 10.0 mi SSE 12.7 mph 25.3 mph N/A   Clear
12:53 PM 66.0 °F - 39.9 °F 38% 29.82 in 10.0 mi SSE 13.8 mph 25.3 mph N/A   Clear
1:53 PM 68.0 °F - 41.0 °F 37% 29.77 in 10.0 mi SE 13.8 mph 23.0 mph N/A   Clear
2:53 PM 70.0 °F - 39.0 °F 32% 29.73 in 10.0 mi SE 16.1 mph 24.2 mph N/A   Clear
3:53 PM 70.0 °F - 39.9 °F 33% 29.70 in 10.0 mi SE 16.1 mph - N/A   Clear
4:53 PM 69.1 °F - 35.1 °F 29% 29.70 in 10.0 mi SSE 15.0 mph 23.0 mph N/A   Clear
5:53 PM 66.0 °F - 36.0 °F 33% 29.70 in 10.0 mi SE 15.0 mph - N/A   Clear
6:53 PM 63.0 °F - 36.0 °F 37% 29.69 in 10.0 mi ESE 10.4 mph - N/A   Clear
7:53 PM 61.0 °F - 37.9 °F 42% 29.69 in 10.0 mi ESE 6.9 mph - N/A   Clear
8:53 PM 57.9 °F - 37.9 °F 47% 29.69 in 10.0 mi ESE 6.9 mph - N/A   Clear
9:53 PM 59.0 °F - 39.9 °F 49% 29.68 in 10.0 mi SE 13.8 mph - N/A   Clear
10:53 PM 57.9 °F - 41.0 °F 53% 29.65 in 10.0 mi SE 13.8 mph - N/A   Partly Cloudy
11:53 PM 55.0 °F - 41.0 °F 59% 29.59 in 10.0 mi ESE 10.4 mph - N/A   Clear